Back to catalog

STARLINK-38031

AliveCommunicationsVLEO
NORAD 69827·PAYLOAD·🇺🇸 United States

Launched Jul 5, 2026 from Cape Canaveral Space Force Station

Loading…

Next Passes (next 24 hours)

TLE

FreshSource: CelesTrak SupGP

Epoch: Sep 14, 2026, 21:30 UTC

1 69827C 26154J   26257.89631944 -.00002421  00000+0 -71546-4 0  2570
2 69827  53.1601 358.1159 0001214  72.2245 345.5220 15.34384231    18

Track STARLINK-38031 in real time with AllMySat

Download on the App Store